Home > Weather > Mabalacat > Past weeks

Flag for Philippines Past Weather in Mabalacat, Philippines — Yesterday and Last 2 Weeks

Now
79 °F

Passing clouds.


Feels Like: 82 °F
Forecast: 78 / 93 °F
Wind: 5 mph from South

Location: Clarkfield Pampanga International Airport

Current Time: Jun 28, 2016 at 2:44:09 AM

Latest Report: Jun 28, 2016 at 2:00 AM


Visibility: N/A

Pressure: 29.83 "Hg

Humidity: 89%

Dew Point: 75 °F

Location of MabalacatLocation

Past Weather in Mabalacat — Graph

°F

Mabalacat Temperature Yesterday

Maximum temperature yesterday: 88 °F (at 12:00 PM)
Minimum temperature yesterday: 77 °F (at 1:00 AM)
Average temperature yesterday: 81 °F

High & Low Weather Summary for the Past Weeks

 TemperatureHumidityPressure
High95 °F (Jun 15, 2:00 PM)94% (Jun 13, 1:00 AM)29.92 "Hg (Jun 13, 1:00 AM)
Low75 °F (Jun 24, 9:00 PM)49% (Jun 22, 2:00 PM)29.74 "Hg (Jun 23, 4:00 PM)
Average84 °F77%29.84 "Hg
* Reported Jun 13 1:00 AM — Jun 28 1:00 AM, Mabalacat, Weather by CustomWeather, © 2016

Note: Actual official high and low records may vary slightly from our data, if they occured in-between our weather recording intervals... More about our weather records

Advertising

Mabalacat Weather History for the Previous 24 Hours

Scroll right to see more
 ConditionsComfort  
Time TempWeatherWind HumidityBarometerVisibility
1:00 AM
Tue, Jun 28
79 °FPassing clouds.2 mph89%29.83 "HgN/A
12:00 AM79 °FPassing clouds.3 mph89%29.86 "HgN/A
11:00 PM
Mon, Jun 27
79 °FPassing clouds.6 mph89%29.86 "HgN/A
10:00 PM79 °FOvercast.5 mph89%29.86 "HgN/A
9:00 PM81 °FThundershowers. Mostly cloudy.5 mph84%29.83 "Hg6 mi
8:00 PM81 °FMostly cloudy.2 mph84%29.83 "HgN/A
7:00 PM81 °FMostly cloudy.2 mph84%29.83 "HgN/A
6:00 PM81 °FMore clouds than sun.7 mph89%29.83 "HgN/A
5:00 PM82 °FMore clouds than sun.7 mph84%29.80 "Hg6 mi
4:00 PM84 °FSprinkles. More clouds than sun.9 mph74%29.80 "Hg5 mi
3:00 PM88 °FBroken clouds.9 mph66%29.77 "HgN/A
2:00 PM88 °FBroken clouds.7 mph62%29.80 "HgN/A
1:00 PM88 °FMore clouds than sun.7 mph62%29.80 "HgN/A
12:00 PM88 °FBroken clouds.5 mph66%29.83 "HgN/A
11:00 AM84 °FBroken clouds.5 mph74%29.83 "HgN/A
10:00 AM84 °FBroken clouds.5 mph74%29.86 "Hg6 mi
9:00 AM82 °FMore clouds than sun.3 mph79%29.86 "Hg6 mi
8:00 AM81 °FMore clouds than sun.1 mph84%29.83 "Hg5 mi
7:00 AM77 °FMostly cloudy.1 mph89%29.83 "Hg5 mi
6:00 AM77 °FPartly sunny.1 mph89%29.80 "Hg5 mi
5:00 AM77 °FPartly cloudy.3 mph89%29.80 "Hg5 mi
4:00 AM77 °FPassing clouds.3 mph89%29.80 "Hg5 mi
3:00 AM77 °FPassing clouds.5 mph89%29.80 "Hg5 mi
2:00 AM77 °FLight rain. Mostly cloudy.2 mph89%29.80 "Hg5 mi
Weather by CustomWeather, © 2016

See weather overviewHow to use our weather pages